Regional Weather Roundup
Issued by NWS

Home | Current Version | Previous Version | Text Only | Print | Product List | Glossary On
Versions: 1 2 3 4 5 6 7 8 9 10 11 12 13 14 15 16 17 18 19 20 21 22 23 24 25 26 27 28 29 30 31 32 33 34 35 36 37 38 39 40 41 42 43 44 45 46 47 48 49 50
000
ASUS45 KABQ 301510
RWRNM
WEATHER ROUNDUP FOR NEW MEXICO
NATIONAL WEATHER SERVICE ALBUQUERQUE NM
800 AM MST FRI JAN 30 2015

NOTE: "FAIR" MEANS FEW OR NO CLOUDS BELOW 12,000 FEET AGL WITH NO
       SIGNIFICANT WEATHER OR OBSTRUCTIONS TO VISION.

      THIS PRODUCT IS RELEASED AS TWO VERSIONS.  ONE VERSION NEAR
      THE TOP OF THE HOUR CONTAINING PRELIMINARY DATA FROM ALBUQUERQUE
      AND OTHER STATIONS.  A FINAL VERSION WITH ADDITIONAL DATA IS
      ISSUED ABOUT 10 MINUTES AFTER THE HOUR.

NMZ501-503-504-510>518-301600-
NORTHWEST PLATEAU/NORTHCENTRAL MOUNTAINS

CITY           SKY/WX    TMP DP  RH WIND       PRES   REMARKS
FARMINGTON     LGT SNOW  32  31  96 E9        30.20F FOG     WCI  24
LOS ALAMOS     LGT SNOW  28  28 100 SW10      30.30S WCI  18
SANTA FE       LGT SNOW  29  25  85 S6        30.29F VSB 1   WCI  23
TAOS           CLOUDY    27  23  86 CALM      30.29F VSB 3/4
ANGEL FIRE     LGT SNOW  26  25  95 N5        30.28F VSB 1   WCI  21

$$
NMZ402-403-502-505>509-301600-
WESTCENTRAL MOUNTAINS/SOUTHWEST MOUNTAINS

CITY           SKY/WX    TMP DP  RH WIND       PRES   REMARKS
GALLUP         LGT SNOW  32  30  92 NE5       30.15S VSB 3/4 WCI  27
GRANTS         LGT SNOW  30  29  95 S17G25    30.20F VSB 1   WCI  18
SILVER CITY    CLOUDY    39  37  93 E15       30.20R WCI  31

$$
NMZ407-409-411-412-301600-
SOUTHERN DESERTS

CITY           SKY/WX    TMP DP  RH WIND       PRES   REMARKS
LORDSBURG      LGT RAIN  41  37  87 E24G35    30.13S
DEMING         CLOUDY    40  38  93 E16       30.21R WCI  31
LAS CRUCES     CLOUDY    42  38  86 SE14G24   30.22F
HOLLOMAN AFB   LGT RAIN  40  40  99 SW7       30.25F
ALAMOGORDO     LGT RAIN  39  39 100 N3        30.26F
T OR C         LGT RAIN  37  36  96 N10       30.23F FOG     WCI  30

$$
NMZ519>523-301600-
CENTRAL VALLEYS/CENTRAL HIGHLANDS

CITY           SKY/WX    TMP DP  RH WIND       PRES   REMARKS
ALBUQUERQUE    LGT SNOW  33  30  88 E14       30.27F VSB 1   WCI  23
DOUBLE EAGLE   LGT SNOW  30  28  93 NE5       30.28F VSB 1   WCI  25
MORIARTY ARPT  LGT SNOW  31  27  87 E6        30.32F WCI  25
CLINES CORNERS CLOUDY    26  24  92 E15       30.27F WCI  14
BELEN          SNOW      32  32 100 NW3       30.27S VSB 1/2
SOCORRO        LGT RAIN  33  33  99 W3        30.27F

$$
NMZ524>526-539-540-301600-
SOUTHCENTRAL MOUNTAINS

CITY           SKY/WX    TMP DP  RH WIND       PRES   REMARKS
RUIDOSO        LGT SNOW  28  27  93 SE9       30.33F WCI  20

$$
NMZ527>531-301600-
NORTHEAST HIGHLANDS/NORTHEAST PLAINS

CITY           SKY/WX    TMP DP  RH WIND       PRES   REMARKS
LAS VEGAS      LGT SNOW  26  24  92 S6        30.32F FOG     WCI  19
RATON          LGT SNOW  29  28  96 W7        30.31S FOG     WCI  22
CLAYTON        CLOUDY    36  30  79 S9        30.34F WCI  29

$$
NMZ532>537-301600-
EASTCENTRAL PLAINS

CITY           SKY/WX    TMP DP  RH WIND       PRES   REMARKS
TUCUMCARI      CLOUDY    38  30  73 SW9       30.37F WCI  31
CANNON AFB     CLOUDY    37  28  70 SE7       30.38F WCI  32
CLOVIS AIRPORT CLOUDY    36  28  75 SE8       30.39F WCI  29

$$
NMZ028-029-538-301600-
SOUTHEAST PLAINS

CITY           SKY/WX    TMP DP  RH WIND       PRES   REMARKS
ROSWELL        LGT RAIN  41  32  70 E3        30.39S
ARTESIA        DRIZZLE   39  37  93 CALM      30.40F
CARLSBAD       LGT RAIN  41  34  76 E3        30.39S
HOBBS          CLOUDY    37  28  70 E12       30.40F WCI  30


$$


USA.gov is the U.S. government's official web portal to all federal, state and local government web resources and services.